Wind_Speed
29 28 29 30 32 32 31 32 32 33 34 35 33 31 32 32 31 30 32 34 34 32 33 34 36 35 34 34 34 33 34 32 32 31 32 32 32 32 33 31 29 31 30
34 31 30 31 30 30 31 34 36 36 34 33 32 31 32 34 34 29 29 31 31 34 36 38 39 41 41 41 40 41 40 39 39 39 38 36 38 36 36 37 36 34 35
41 39 37 34 30 33 33 34 35 34 34 34 33 35 39 42 38 36 35 37 34 34 34 34 36 34 40 44 45 46 46 47 47 46 45 46 46 46 41 41 42 42 40
39 36 33 34 38 40 38 38 38 38 36 36 38 40 40 42 41 41 40 42 41 40 41 42 45 48 49 46 44 45 47 50 51 51 51 53 52 48 49 47 46 46 46
34 36 42 44 43 42 41 40 37 36 39 40 42 41 42 41 40 40 45 46 43 47 47 50 49 53 51 52 53 54 53 53 52 53 54 56 58 58 57 54 53 52 50
38 40 42 42 41 38 35 34 38 43 43 43 44 45 44 43 43 46 46 47 49 49 51 52 50 50 51 53 55 54 54 54 55 57 58 58 59 62 61 61 60 59 59
41 41 40 39 37 38 37 42 46 45 46 45 45 44 46 45 45 46 48 50 51 53 55 53 52 53 53 51 50 51 53 54 55 57 58 62 64 66 66 64 63 64 65
42 43 42 43 42 40 45 50 49 48 47 47 47 47 46 47 49 50 50 50 50 50 50 48 47 48 49 48 49 50 52 53 54 55 56 58 59 63 67 71 70 68 68
46 49 48 48 50 50 51 50 47 46 45 44 44 44 45 47 48 48 47 46 45 45 47 47 48 50 51 51 51 53 55 56 57 58 60 60 60 61 63 67 70 71 73
36 38 40 42 42 44 45 44 43 44 43 43 45 45 45 44 43 44 45 46 47 48 50 51 52 53 54 55 54 54 56 58 60 62 63 64 64 67 68 69 70 72 71
31 35 36 38 39 39 38 38 40 41 41 40 41 43 45 47 48 49 50 51 51 52 52 54 55 55 54 54 57 59 60 62 64 65 67 66 68 69 71 73 75 76 76
29 29 30 31 32 33 34 34 35 37 39 41 44 46 48 49 50 51 52 54 54 55 55 56 57 58 58 57 56 61 66 69 69 69 71 72 72 72 73 75 78 79 81
28 31 28 24 29 30 31 34 36 38 40 43 45 48 51 54 55 58 59 59 59 60 60 59 60 59 57 57 62 65 67 68 69 71 72 72 73 73 73 75 79 80 83
22 22 22 26 31 33 35 36 38 42 44 48 50 54 58 60 61 62 62 62 62 62 61 61 60 58 63 67 67 68 69 70 71 70 70 70 69 72 75 76 80 82 85
15 18 22 25 30 31 33 36 41 44 47 51 53 58 61 64 62 62 61 61 62 62 62 64 67 68 70 70 71 71 71 71 70 70 68 68 71 72 76 77 80 86 88
16 17 21 26 29 35 36 37 42 47 49 56 60 61 62 64 64 63 62 64 70 72 70 68 71 73 73 73 72 74 75 73 71 70 70 71 72 70 73 81 79 84 89
18 19 22 31 29 37 42 44 47 49 50 56 60 65 66 66 65 63 65 71 75 74 75 76 77 78 78 76 77 75 75 75 75 75 76 75 70 69 72 75 76 79 84
26 29 25 22 43 52 48 47 50 51 55 58 64 65 69 66 71 78 79 80 80 80 80 80 81 80 80 76 76 79 80 78 79 78 74 68 67 64 67 69 70 72 71
37 42 34 44 47 50 53 52 61 62 61 67 69 74 75 78 80 86 90 86 86 84 81 81 82 82 82 82 82 83 83 80 76 69 63 61 56 58 60 52 51 51 55
34 39 47 35 52 51 55 62 66 66 65 68 71 75 79 83 88 89 88 86 86 85 85 85 85 86 84 80 75 74 72 68 64 59 55 47 52 41 36 37 38 38 35
20 29 32 49 50 41 56 62 62 66 70 75 80 81 85 90 90 89 89 91 91 87 83 80 77 76 73 68 65 65 65 60 59 51 41 42 28 28 30 29 32 28 24
21 26 40 48 50 59 65 65 71 73 74 84 87 89 92 93 91 92 90 86 81 79 76 75 74 73 71 66 61 60 58 55 53 39 28 28 23 22 19 19 17 17 19
37 45 53 56 62 66 71 77 76 81 81 87 88 93 94 93 89 85 84 82 80 78 74 72 70 67 63 62 58 53 47 49 48 37 21 21 20 15 15 15 16 16 17
45 53 58 57 68 69 74 80 87 92 91 90 94 93 91 86 82 80 81 79 75 72 68 63 59 55 54 52 49 50 51 48 37 38 20 19 18 13 12 13 13 15 17
51 57 59 66 73 75 81 87 89 87 91 93 92 88 83 80 77 75 77 79 73 66 60 55 49 47 42 42 50 52 54 48 39 35 21 18 18 13 9 11 14 17 20
55 61 66 70 74 80 83 85 84 87 89 90 87 81 77 74 72 71 69 68 61 55 48 43 37 36 37 42 44 49 40 23 29 30 20 13 14 15 13 12 14 16 19
Wind_Direction
250 258 263 260 264 268 272 270 274 281 289 292 293 292 296 297 302 292 284 286 286 286 284 286 287 285 283 279 278 278 276 273 273 276 279 278 277 278 276 275 273 264 258
262 267 273 270 269 274 276 278 278 283 285 292 292 291 291 294 294 292 289 286 286 285 282 279 277 279 282 278 276 276 274 272 271 273 273 272 271 269 271 271 270 270 266
267 268 274 277 276 280 282 284 282 285 285 287 288 289 288 291 289 287 286 288 287 290 290 288 280 279 286 280 276 273 271 270 270 270 269 270 270 266 268 265 265 264 265
265 266 270 279 285 282 281 281 285 287 284 284 292 290 287 289 285 283 284 290 283 284 286 286 283 282 285 278 275 276 275 270 268 267 267 271 269 264 263 263 261 261 260
259 261 272 278 282 281 282 283 286 290 289 288 287 286 287 286 283 281 284 285 281 284 284 286 282 282 282 279 275 276 275 271 268 267 267 268 267 265 263 259 259 258 256
273 269 272 278 286 284 283 287 290 291 289 287 286 284 286 286 284 281 285 284 285 285 287 287 282 280 278 276 275 272 271 268 268 265 264 264 265 266 264 261 258 255 255
275 280 286 289 287 286 286 289 293 289 289 290 288 286 286 286 287 286 287 286 284 283 284 282 280 278 277 275 272 271 269 269 268 267 266 264 263 263 263 262 260 256 252
272 280 282 285 288 284 283 289 291 291 290 290 289 289 288 287 287 286 286 285 284 284 284 282 280 279 278 278 278 278 277 275 274 272 270 268 265 264 264 263 261 259 259
264 269 274 276 280 281 287 289 291 293 292 292 292 291 290 289 289 290 289 288 286 284 282 282 282 282 281 281 281 281 280 279 278 277 275 272 270 267 265 264 263 258 256
278 280 282 283 284 285 287 290 293 292 293 294 293 294 294 293 292 291 289 289 288 287 286 285 284 283 282 282 281 279 279 279 279 278 277 276 273 270 269 266 264 263 258
285 286 287 289 289 290 294 295 295 294 297 299 300 299 298 295 293 292 290 290 289 286 284 284 283 283 283 283 282 279 277 277 278 278 276 275 273 271 270 267 265 264 263
294 292 293 296 299 298 294 294 298 301 302 303 301 300 301 300 301 297 294 292 291 288 286 285 284 284 283 283 284 282 278 277 277 279 279 276 274 272 270 268 266 263 260
295 300 301 302 295 295 300 303 303 305 305 305 307 309 308 305 304 301 300 296 293 289 288 288 286 285 285 282 282 284 282 280 278 277 277 278 276 273 271 268 267 265 262
302 304 301 298 300 304 306 308 306 306 307 308 310 311 311 309 306 301 298 295 291 289 289 288 290 287 284 285 284 285 286 284 282 280 277 275 275 273 269 265 264 263 262
295 284 291 297 298 299 301 304 306 309 312 311 310 310 309 307 305 300 299 298 295 294 293 293 291 288 287 289 288 288 286 284 282 280 279 278 274 272 268 266 264 260 258
269 279 289 297 297 300 304 305 308 309 311 311 312 313 312 309 304 304 303 300 298 299 297 294 293 292 292 291 291 292 289 287 286 286 287 287 284 283 276 270 268 263 258
274 280 296 302 309 314 309 305 305 310 314 313 311 313 310 307 302 300 301 301 300 299 298 297 297 295 293 294 293 291 289 291 292 292 292 293 291 287 285 283 274 270 262
284 299 314 319 323 319 316 314 315 313 313 313 312 312 311 307 303 304 306 304 301 300 298 297 295 295 293 292 292 293 292 292 292 292 292 292 292 292 285 284 284 280 274
282 294 295 312 308 317 322 317 316 314 314 315 315 317 313 311 308 307 306 305 303 300 298 296 295 294 295 294 294 292 292 292 292 294 293 293 293 288 291 292 290 288 282
281 291 292 301 312 316 312 311 312 313 314 317 313 312 310 309 307 305 303 301 298 298 297 296 294 294 293 294 295 293 291 292 292 293 294 296 291 286 294 305 310 303 298
245 268 298 313 307 298 300 312 311 314 314 313 313 309 307 306 304 303 301 301 301 301 299 298 297 295 297 298 297 294 292 291 290 293 297 286 287 292 290 296 301 314 326
254 287 283 294 297 305 311 310 311 310 307 309 311 308 306 306 306 305 303 301 302 302 301 300 297 297 298 297 295 291 291 291 289 293 278 274 284 285 299 301 319 337 344
273 286 277 302 304 308 308 307 306 308 307 308 307 309 308 307 305 305 306 306 304 304 302 300 299 298 296 295 295 290 284 285 285 290 247 261 271 280 294 312 328 336 347
285 270 290 294 298 302 303 306 310 310 309 308 309 308 307 307 308 306 306 307 308 306 303 302 300 296 293 295 294 289 288 283 274 280 223 248 267 272 291 318 334 344 345
287 287 290 298 304 306 307 310 309 307 308 309 310 309 309 308 309 310 309 312 312 311 308 304 299 296 297 298 296 302 299 287 258 258 215 228 251 271 293 319 333 345 348
296 299 301 305 307 305 305 306 307 308 309 309 310 310 311 311 312 313 313 313 313 313 311 308 308 303 298 300 303 307 304 289 222 225 231 222 237 264 289 307 321 329 336
Height
11003 11002 11002 11002 11001 11001 11001 11000 10999 10998 10996 10994 10993 10992 10990 10989 10988 10986 10985 10984 10983 10982 10980 10979 10978 10977 10976 10975 10974 10972 10971 10971 10970 10969 10969 10968 10967 10965 10964 10964 10964 10965 10964
11001 11000 11000 11000 10999 10998 10997 10996 10995 10993 10992 10990 10988 10986 10985 10983 10982 10981 10979 10978 10976 10974 10973 10972 10970 10969 10968 10967 10966 10965 10964 10964 10963 10962 10962 10961 10960 10959 10959 10957 10957 10957 10958
10996 10996 10996 10995 10996 10995 10993 10991 10990 10988 10986 10984 10982 10980 10979 10977 10976 10975 10973 10971 10970 10968 10966 10964 10962 10960 10960 10958 10956 10955 10954 10954 10953 10954 10953 10951 10951 10950 10951 10950 10949 10949 10950
10992 10992 10992 10992 10991 10989 10988 10986 10984 10983 10981 10979 10976 10974 10972 10971 10969 10967 10966 10965 10963 10961 10959 10957 10955 10953 10950 10949 10947 10945 10944 10942 10942 10942 10943 10940 10939 10941 10940 10941 10941 10940 10940
10989 10989 10989 10988 10987 10985 10983 10980 10978 10976 10975 10972 10969 10967 10965 10963 10962 10960 10958 10956 10954 10953 10951 10948 10946 10943 10940 10938 10936 10935 10933 10931 10930 10931 10930 10928 10926 10926 10926 10930 10930 10929 10930
10983 10984 10984 10984 10981 10979 10977 10974 10973 10970 10967 10965 10962 10960 10958 10956 10954 10953 10950 10949 10947 10944 10941 10938 10935 10932 10929 10927 10925 10922 10921 10919 10919 10919 10919 10916 10914 10911 10912 10914 10915 10916 10917
10979 10979 10979 10978 10976 10974 10972 10969 10967 10964 10961 10959 10957 10954 10951 10949 10947 10945 10942 10940 10937 10934 10931 10927 10924 10922 10919 10916 10913 10910 10909 10907 10906 10905 10904 10904 10904 10899 10897 10898 10901 10901 10902
10974 10975 10975 10974 10972 10970 10967 10964 10961 10959 10956 10953 10950 10947 10944 10941 10939 10936 10933 10929 10926 10923 10920 10917 10914 10911 10908 10905 10903 10899 10897 10895 10893 10890 10890 10890 10891 10888 10886 10884 10886 10887 10888
10971 10972 10970 10969 10967 10964 10962 10959 10956 10953 10950 10946 10943 10940 10937 10934 10931 10928 10924 10921 10918 10915 10911 10908 10904 10900 10896 10894 10892 10887 10884 10881 10879 10877 10875 10874 10874 10872 10871 10869 10867 10871 10873
10966 10965 10964 10962 10961 10959 10957 10954 10950 10947 10943 10940 10937 10934 10930 10926 10923 10919 10915 10911 10908 10905 10900 10897 10892 10888 10885 10882 10880 10876 10871 10867 10863 10861 10859 10859 10858 10855 10853 10853 10851 10849 10854
10960 10959 10959 10957 10955 10954 10951 10947 10943 10940 10937 10934 10931 10928 10924 10919 10916 10911 10906 10902 10898 10893 10889 10884 10880 10876 10873 10870 10867 10863 10859 10853 10848 10843 10841 10843 10839 10837 10836 10836 10834 10833 10833
10952 10953 10953 10951 10948 10947 10943 10940 10937 10935 10932 10929 10925 10921 10915 10911 10906 10901 10896 10890 10886 10880 10875 10871 10867 10862 10858 10856 10852 10847 10843 10838 10833 10828 10822 10821 10821 10820 10819 10817 10814 10813 10813
10946 10945 10947 10947 10943 10943 10941 10937 10932 10927 10925 10923 10918 10913 10906 10901 10897 10888 10881 10876 10872 10865 10861 10857 10853 10849 10844 10840 10836 10831 10825 10820 10815 10812 10806 10801 10800 10799 10798 10795 10792 10792 10791
10943 10942 10941 10940 10936 10937 10934 10931 10927 10923 10918 10912 10909 10903 10897 10890 10884 10878 10873 10867 10860 10854 10850 10843 10840 10836 10829 10824 10820 10814 10806 10800 10795 10792 10789 10785 10781 10777 10773 10773 10770 10767 10765
10935 10935 10936 10936 10932 10930 10927 10924 10920 10914 10908 10901 10900 10895 10887 10880 10873 10863 10859 10852 10845 10841 10836 10830 10822 10817 10811 10806 10799 10792 10786 10779 10776 10772 10770 10765 10761 10755 10749 10743 10744 10741 10740
10924 10925 10924 10924 10924 10922 10920 10916 10911 10906 10903 10889 10881 10879 10876 10866 10856 10851 10845 10837 10829 10823 10817 10812 10805 10796 10791 10785 10779 10770 10763 10759 10756 10752 10747 10743 10737 10730 10724 10718 10713 10710 10712
10920 10916 10914 10914 10913 10913 10911 10908 10902 10896 10895 10885 10869 10863 10860 10854 10844 10838 10834 10825 10814 10807 10799 10791 10784 10776 10770 10766 10760 10751 10743 10739 10734 10730 10724 10719 10714 10706 10698 10689 10686 10682 10681
10918 10913 10908 10906 10908 10906 10898 10893 10888 10888 10884 10875 10864 10853 10847 10840 10829 10821 10815 10808 10797 10789 10781 10773 10763 10756 10750 10748 10740 10729 10721 10718 10714 10708 10705 10698 10692 10685 10675 10669 10664 10657 10655
10910 10911 10901 10900 10899 10892 10885 10881 10876 10871 10867 10860 10848 10834 10826 10821 10813 10801 10793 10785 10775 10767 10761 10752 10742 10734 10729 10724 10718 10706 10699 10696 10690 10687 10684 10680 10674 10666 10661 10654 10647 10638 10632
10902 10904 10905 10899 10893 10883 10873 10868 10863 10857 10850 10844 10836 10823 10815 10808 10801 10789 10777 10769 10757 10748 10741 10730 10722 10710 10705 10701 10696 10684 10677 10675 10670 10671 10668 10663 10658 10653 10648 10641 10633 10627 10619
10898 10894 10890 10894 10893 10883 10872 10861 10853 10844 10836 10829 10820 10811 10806 10796 10786 10774 10759 10746 10733 10725 10716 10707 10699 10688 10681 10680 10677 10667 10659 10658 10654 10656 10655 10648 10647 10643 10639 10633 10627 10618 10612
10892 10890 10889 10884 10881 10873 10861 10857 10848 10839 10827 10817 10808 10797 10789 10778 10765 10751 10738 10726 10715 10704 10694 10686 10679 10672 10664 10661 10657 10651 10644 10639 10637 10645 10643 10638 10637 10635 10630 10627 10620 10613 10608
10882 10880 10877 10873 10867 10858 10850 10845 10838 10827 10819 10808 10795 10783 10771 10759 10745 10731 10716 10706 10694 10685 10676 10667 10659 10653 10647 10641 10639 10636 10633 10627 10624 10626 10630 10628 10629 10626 10624 10619 10614 10608 10604
10875 10873 10868 10862 10856 10848 10842 10831 10817 10806 10795 10790 10780 10769 10757 10741 10728 10716 10700 10688 10677 10667 10658 10651 10644 10637 10632 10627 10622 10618 10617 10616 10614 10611 10620 10619 10619 10618 10616 10612 10608 10603 10598
10869 10865 10860 10851 10838 10831 10823 10810 10807 10797 10784 10773 10762 10748 10736 10724 10713 10699 10684 10669 10657 10649 10639 10634 10629 10624 10621 10616 10611 10603 10595 10594 10599 10602 10609 10612 10611 10609 10607 10605 10600 10596 10593
10853 10848 10843 10835 10826 10823 10818 10809 10797 10785 10772 10757 10743 10731 10718 10706 10698 10686 10673 10659 10647 10636 10629 10622 10619 10615 10611 10607 10601 10593 10583 10576 10579 10589 10597 10601 10602 10601 10599 10597 10594 10591 10587